Location: Baia Mare
(47.6567°N, 23.5850°E)
Time: 14:39:10
(UTC+03:00)

ISS - Pass Details

Date: 20 May 2018
Orbit: 402 x 407 km, 51.6° (Epoch: 26 May)

Event Time Altitude Azimuth Distance (km) Brightness Sun altitude
Exits shadow 02:38:46 - 289° (WNW) 1,887 -0.4 -20.3°
Reaches altitude 10° 02:39:51 10° 294° (WNW) 1,458 -1.0 -20.2°
Maximum altitude 02:42:58 41° 6° (N) 603 -2.5 -20.0°
Drops below altitude 10° 02:46:05 10° 79° (ENE) 1,457 -0.6 -19.8°
Sets 02:48:14 0° 87° (E) 2,316 0.3 -19.7°
